Location: Rounton
(54.4000°N, 1.3500°W)
Time: 11:08:48
(UTC+01:00)

deb r/b Ablestar - Pass Details

Date: 08 July 2022
Orbit: 680 x 853 km, 66.7° (Epoch: 16 August)

Event Time Altitude Azimuth Distance (km) Brightness Sun altitude
Exits shadow 02:06:12 - 151° (SSE) 2,686 ? -12.2°
Reaches altitude 10° 02:07:05 10° 145° (SE) 2,463 ? -12.1°
Maximum altitude 02:10:40 17° 106° (ESE) 2,012 ? -12.0°
Drops below altitude 10° 02:14:17 10° 67° (ENE) 2,491 ? -11.9°
Sets 02:17:34 0° 49° (NE) 3,429 ? -11.8°
